Hurghada, Egypt

12:33 AM EET on January 20, 2017 (GMT +0200)
Hurghada International

Weather History for HEGN - December, 2012

Change the Weather History Date:

Tuesday, December 18, 2012

  Actual Average Record
Temperature  
Mean Temperature 67 °F -  
Max Temperature 77 °F 69 °F 85 °F (2014)
Min Temperature 57 °F 53 °F 49 °F (2015)
Cooling Degree Days 2    
Growing Degree Days 17 (Base 50)    
Moisture  
Dew Point 48 °F    
Average Humidity 52    
Maximum Humidity 67    
Minimum Humidity 32    
Precipitation  
Precipitation 0.00 in - - ()
Sea Level Pressure  
Sea Level Pressure 30.01 in    
Wind  
Wind Speed 11 mph ()    
Max Wind Speed 17 mph    
Max Gust Speed -    
Visibility 6.0 miles    
Events      
Averages and records for this station are not official NWS values.
T = Trace of Precipitation, MM = Missing Value Source: Averaged Metar Reports

Daily Weather History Graph

Daily Weather History Graph

Search for Another Location

Airport or City:

Trip Planner

Search our weather history database for the weather conditions in past years. The results will help you decide how hot, cold, wet, or windy it might be!

Date:

Astronomy

Dec. 18, 2012 Rise Set
Actual Time 6:28 AM EET 4:54 PM EET
Civil Twilight 6:03 AM EET 5:20 PM EET
Nautical Twilight 5:34 AM EET 5:49 PM EET
Astronomical Twilight 5:05 AM EET 6:18 PM EET
Moon 10:24 AM EET (12/18) 10:29 PM EET (12/18)
Length of Visible Light 11h 17m
Length of Day
10h 26m
Waxing Crescent, 31% of the Moon is Illuminated
Dec 18
Waxing Crescent
Dec 20
First Quarter
Dec 28
Full
Jan 5
Last Quarter
Jan 11
New

Hourly Weather History & Observations

Time (EET) Temp. Dew Point Humidity Pressure Visibility Wind Dir Wind Speed Gust Speed Precip Events Conditions
2:00 AM 58 °F 42 °F 45% 30.03 in 6 mi WNW 13.8 mph - -  
2:00 AM 59.0 °F 42.8 °F 55% 30.01 in - WNW 13.8 mph - N/A   Clear
3:00 AM 57.2 °F 41.0 °F 55% 30.01 in - North 12.7 mph - N/A   Clear
4:00 AM 59.0 °F 42.8 °F 55% 30.01 in - WNW 15.0 mph - N/A   Clear
5:00 AM 57.2 °F 42.8 °F 59% 30.01 in - WNW 13.8 mph - N/A   Clear
6:00 AM 57.2 °F 42.8 °F 59% 30.01 in - WNW 13.8 mph - N/A   Clear
9:00 AM 66.2 °F 48.2 °F 52% 30.04 in - WNW 15.0 mph - N/A   Clear
10:00 AM 69.8 °F 50.0 °F 49% 30.04 in - NW 13.8 mph - N/A   Clear
11:00 AM 71.6 °F 48.2 °F 43% 30.04 in - NW 13.8 mph - N/A   Clear
12:00 PM 73.4 °F 53.6 °F 50% 30.01 in - North 17.3 mph - N/A   Clear
1:00 PM 75.2 °F 53.6 °F 47% 29.98 in - North 13.8 mph - N/A   Clear
2:00 PM 77 °F 53 °F 32% 29.99 in 6 mi North 17.3 mph - -  
2:00 PM 77.0 °F 53.6 °F 44% 29.98 in - North 17.3 mph - N/A   Clear
3:00 PM 77.0 °F 53.6 °F 44% 29.98 in - North 13.8 mph - N/A   Clear
4:00 PM 75.2 °F 51.8 °F 44% 29.98 in - North 12.7 mph - N/A   Clear
5:00 PM 71.6 °F 50.0 °F 46% 29.98 in - North 6.9 mph - N/A   Clear
6:00 PM 68.0 °F 51.8 °F 56% 29.98 in - NNW 4.6 mph - N/A   Clear
7:00 PM 64.4 °F 50.0 °F 59% 30.01 in - West 4.6 mph - N/A   Clear
8:00 PM 62 °F 49 °F 51% 30.02 in 6 mi West 6.9 mph - -  
8:00 PM 60.8 °F 48.2 °F 63% 30.01 in - West 6.9 mph - N/A   Clear
9:00 PM 66.2 °F 48.2 °F 52% 30.01 in - West 10.4 mph - N/A   Clear
10:00 PM 57.2 °F 46.4 °F 67% 30.04 in - West 4.6 mph - N/A   Clear
11:00 PM 57.2 °F 44.6 °F 63% 30.04 in - West 5.8 mph - N/A   Clear